Location: ??????
(38.0131°N, 23.7723°E)
Time: 02:37:04
(UTC+00:00)

Gbstr 26 Del rocket - Pass Details

Date: 17 October 2021
Orbit: 492 x 1263 km, 51.8° (Epoch: 04 December)

Event Time Altitude Azimuth Distance (km) Brightness Sun altitude
Rises 17:45:11 0° 310° (NW) 3,878 8.0 -24.5°
Reaches altitude 10° 17:47:48 10° 313° (NW) 3,009 7.2 -25.0°
Maximum altitude 17:55:16 64° 35° (NE) 1,343 4.5 -26.5°
Enters shadow 17:56:53 54° 83° (E) 1,480 4.5 -26.8°
